Find KUIPER-00432

NORAD ID: 68937 Int'l Des: 2026-098U Owner: KUIP Country: US Constellation: amazon-leo operational
LEOCIRCULAR

Current View

Loading 3D Globe...

About KUIPER-00432

KUIPER-00432 (NORAD 68937) is a amazon-leo constellation satellite launched Apr 30, 2026 by KUIP of US. It operates in LEO, CIRCULAR orbit with a mass of 490.00 kg.

About KUIPER-00432

Description loading...

Upcoming Passes

Passes for default location (London). Set your location on the main map for personalized predictions.

Altitude History

Loading altitude history...

Two-Line Element Set

1 68937U 26098U 26170.40805926 -.00037220 00000-0 -12887-2 0 9992
2 68937 51.8768 58.1056 0012907 156.0844 204.0741 15.29113104 7677
Epoch: Jun 19, 2026 • Age: 23 hours

Current Status

Altitude 490.4 km
Velocity 7.62 km/s
Sub-Earth Point -11.46°S, 3.15°W
Launch Date Apr 30, 2026
Age 0.1 years
Type internet

Technical Details

Classification Payload
Mass 490.00 kg
Dry Mass 490.00 kg
Total Mass 490.00 kg
Length 1.80 m
Diameter 0.70 m
Span 5.00 m
Shape Box + 2 pan
Manufacturer KUIP
Bus Type Kuiper
Phase Status In Orbit
Owner/State KUIP/US

Most Searched